Location: Asheville, NC
(35.6000°N, 82.5500°W)
Time: 04:33:04
(UTC-04:00)

Hubble Space Telescope - Pass Details

Date: 04 January 2018
Orbit: 537 x 541 km, 28.5° (Epoch: 17 July)

Event Time Altitude Azimuth Distance (km) Brightness Sun altitude
Exits shadow 05:08:41 17° 149° (SSE) 1,398 3.2 -30.1°
Drops below altitude 10° 05:10:42 10° 120° (ESE) 1,781 4.2 -29.7°
Sets 05:13:31 0° 101° (E) 2,672 5.6 -29.1°
